User: anonymous   Login
Location: Unspecified
(0.0000°N, 0.0000°E)
Time: 15:36:10
(UTC+00:00)
Language:

Tiangong 1 - Orbit

View from above orbital plane
View from above orbital plane
View from above satellite
View from above satellite

Ground track
Ground track

The orbit data is extracted from the following two-line orbital elements,

1 37820U 11053A   17141.80729825 +.00030431 +00000-0 +17684-3 0  9995
2 37820 042.7599 001.4092 0019940 253.1785 161.8320 15.77594244323803
Epoch (UTC): 21 May 2017 19:22:30
Eccentricity: 0.0019940
inclination: 42.7599°
perigee height: 324 km
apogee height: 350 km
right ascension of ascending node: 1.4092°
argument of perigee: 253.1785°
revolutions per day: 15.77594244
mean anomaly at epoch: 161.8320°
orbit number at epoch: 32380

The dashed part of the orbit path shows where the satellite is in the earth's shadow,  

DLR